Location: Caseificio
(44.7500°N, 11.0500°E)
Time: 00:09:35
(UTC+00:00)

Cosmos 2366 rocket - Pass Details

Date: 26 May 2022
Orbit: 955 x 997 km, 82.9° (Epoch: 26 June)

Event Time Altitude Azimuth Distance (km) Brightness Sun altitude
Rises 02:38:06 0° 350° (N) 3,645 7.5 -9.2°
Reaches altitude 10° 02:40:36 10° 350° (N) 2,696 6.8 -8.9°
Maximum altitude 02:46:46 81° 264° (W) 978 4.0 -8.1°
Drops below altitude 10° 02:52:56 10° 178° (S) 2,698 6.0 -7.3°
Sets 02:55:26 0° 178° (S) 3,646 6.6 -6.9°
